Вернуться в каталог

STARLINK-34102

АктивенСвязьVLEO
NORAD 63806·PAYLOAD·🇺🇸 United States

Запущен May 4, 2025 с Cape Canaveral Space Force Station

Loading…

Ближайшие Пролёты (ближайшие 24 часа)

TLE

СвежийSource: CelesTrak SupGP

Эпоха: Sep 14, 2026, 15:25 UTC

1 63806C 25092C   26257.64284722  .00023025  00000+0  83404-3 0  2578
2 63806  43.0007 185.7794 0001476 266.1212 274.2908 15.27563454    13

Отслеживайте STARLINK-34102 в реальном времени с AllMySat

Download on the App Store